SCP
0 0 0 0 0 0 0 0 0 0 0 0 0 0 0 0 0 0 0 0 0 0 0 0 0 0 0 0 0 0 0 0 0 0 0 0 0 0 0 0 0 0 0 0
0 0 0 0 0 0 0 0 0 0 0 0 0 0 0 0 0 0 0 0 0 0 0 0 0 0 0 0 0 0 0 0 0 0 0 0 0 0 0 0 0 0 0 0
0 0 0 0 0 0 0 0 0 0 0 0 0 0 0 0 0 0 0 0 0 0 0 0 0 0 0 0 0 0 0 0 0 0 0 0 0 0 0 0 0 0 0 0
0 0 0 0 0 0 0 0 0 0 0 0 0 0 0 0 0 0 0 0 0 0 0 0 0 0 0 0 0 0 0 0 0 0 0 0 0 0 0 0 0 0 0 0
0 0 0 0 0 0 0 0 0 0 0 0 0 0 0 0 0 0 0 0 0 0 0 0 0 0 0 0 0 0 0 0 0 0 0 0 0 0 0 0 0 0 0 0
0 0 0 0 0 0 0 0 0 0 0 0 0 0 0 0 0 0 0 0 0 0 0 0 0 0 0 0 0 0 0 0 0 0 0 0 0 0 0 0 0 0 0 0
0 0 0 0 0 0 0 0 0 0 0 0 0 0 0 0 0 0 0 0 0 0 0 0 0 0 0 0 0 0 0 0 0 0 0 0 0 0 0 0 0 0 0 0
0 0 0 0 0 0 0 0 0 0 0 0 0 0 0 0 0 0 0 0 0 0 0 0 0 0 0 0 0 0 0 0 0 0 0 0 0 0 0 0 0 0 0 0
0 0 0 0 0 0 0 0 0 0 0 0 0 0 0 0 0 0 0 0 0 0 0 0 0 0 0 0 0 0 0 0 0 0 0 0 0 0 0 0 0 0 0 0
0 0 0 0 0 0 0 0 0 0 0 0 0 0 0 0 0 0 0 0 0 0 0 0 0 0 0 0 0 0 0 0 0 0 0 0 0 0 0 0 0 0 0 0
0 0 0 0 0 0 0 0 0 0 0 0 0 0 0 0 0 0 0 0 0 0 0 0 0 0 0 0 0 0 0 0 0 0 0 0 0 0 0 0 0 0 0 0
0 0 0 0 0 0 0 0 0 0 0 0 0 0 0 0 0 0 0 0 0 0 0 0 0 0 0 0 0 0 0 0 0 0 0 0 0 0 0 0 0 0 0 0
0 0 0 0 0 0 0 0 0 0 0 0 0 0 0 0 0 0 0 0 0 0 0 0 0 0 0 0 0 0 0 0 0 0 0 0 0 0 0 0 0 0 0 0
0 0 0 0 0 0 0 0 0 0 0 0 0 0 0 0 0 0 0 0 0 0 0 0 0 0 0 0 0 0 0 0 0 0 0 0 0 0 0 0 0 0 0 0
0 0 0 0 0 0 0 0 0 0 0 0 0 0 0 0 0 0 0 0 0 0 0 0 0 0 0 0 0 0 0 0 0 0 0 0 0 0 0 0 0 0 0 0
0 0 0 0 0 0 0 0 0 0 0 0 0 0 0 0 0 0 0 0 0 0 0 0 0 0 0 0 0 0 0 0 0 0 0 0 0 0 0 0 0 0 0 0
0 0 0 0 0 0 0 0 0 0 0 0 0 0 0 0 0 0 0 0 0 0 0 0 0 0 0 0 0 0 0 0 0 0 0 0 0 0 0 0 0 0 0 0
0 0 0 0 0 0 0 0 0 0 0 0 0 0 0 0 0 0 0 0 0 0 0 0 0 0 0 0 0 0 0 0 0 0 0 0 0 0 0 0 0 0 0 0
0 0 0 0 0 0 0 0 0 0 0 0 0 0 0 0 0 0 0 0 0 0 0 0 0 0 0 0 0 0 0 0 0 0 0 0 0 0 0 0 0 0 0 0
0 0 0 0 0 0 0 0 0 0 0 0 0 0 0 0 0 0 0 0 0 0 0 0 0 0 0 0 0 0 0 0 0 0 0 0 0 0 0 0 0 0 0 0
0 0 0 0 0 0 0 0 0 0 0 0 0 0 0 0 0 0 0 0 0 0 0 0 0 0 0 0 0 0 0 0 0 0 0 0 0 0 0 0 0 0 0 0
0 0 0 0 0 0 0 -0 -0 0 0 0 0 0 0 0 0 0 0 0 0 0 0 0 0 0 0 0 0 0 0 0 0 0 0 0 0 0 0 0 0 0 0 0
0 0 0 0 0 0 0 0 0 0 0 0 0 0 0 0 0 0 0 0 0 0 0 0 0 0 0 0 0 0 0 0 0 0 0 0 0 0 0 0 0 0 0 0
0 0 0 0 0 0 0 0 0 0 0 0 0 0 0 0 0 0 0 0 0 0 0 0 0 0 0 0 0 0 0 0 0 0 0 0 0 0 0 0 0 0 0 0
0 0 0 0 0 0 0 0 0 0 0 0 0 0 0 0 0 0 0 0 0 0 0 0 0 0 0 0 0 0 0 0 0 0 0 0 0 0 0 0 0 0 0 0
0 0 0 -0 0 0 0 0 0 0 0 0 0 0 0 0 0 0 0 0 0 0 0 0 0 0 0 0 0 0 0 0 0 0 0 0 0 0 0 0 0 0 0 0
0 0 -0 -0 -0 0 0 0 0 0 0 0 0 0 0 0 0 0 0 0 0 0 0 0 0 0 0 0 0 0 0 0 0 0 0 0 0 0 0 0 0 0 0 0
Wind_Speed
6 6 4 6 7 7 8 8 8 9 9 11 8 6 5 4 3 3 3 2 2 2 1 1 1 1 1 1 0 0 0 0 1 1 1 1 1 1 1 1 1 2 2 2
4 4 5 7 9 9 10 9 10 10 13 9 7 4 4 4 4 4 4 3 3 2 2 2 2 2 1 1 1 0 0 1 1 1 1 1 1 1 1 1 1 1 2 2
4 5 4 7 9 9 7 7 8 10 11 6 6 6 6 5 5 5 5 4 4 3 3 3 3 2 2 2 1 0 1 1 1 1 1 1 2 1 2 2 2 2 2 2
2 2 7 8 3 5 6 8 8 8 7 6 7 7 6 5 5 6 5 4 4 3 3 3 2 2 2 1 1 1 1 2 1 1 2 2 2 2 2 2 2 2 2 2
2 3 9 8 3 3 4 7 7 8 8 5 5 4 5 4 4 5 5 5 4 4 3 2 2 2 1 1 1 1 2 2 2 2 2 2 3 3 3 2 2 2 2 3
3 3 8 7 3 2 1 7 4 5 6 4 2 3 6 4 3 3 4 3 3 2 2 2 2 2 2 2 2 3 3 3 3 2 3 3 4 3 2 2 3 2 2 3
4 5 9 7 3 2 3 7 3 3 4 3 4 6 6 4 4 3 3 3 2 2 2 3 2 2 3 3 3 4 3 3 2 2 3 4 3 3 3 2 2 2 2 2
4 5 10 3 3 5 6 4 3 4 4 4 5 5 5 4 3 2 2 2 2 1 2 2 2 2 3 4 4 3 2 2 2 2 2 2 3 2 2 3 2 2 2 2
9 9 5 3 5 5 4 5 5 4 5 4 5 5 5 4 3 3 3 2 1 1 2 2 2 2 3 4 2 2 2 2 2 2 2 2 3 3 2 2 2 2 2 2
6 8 7 6 6 6 5 6 5 4 4 4 5 5 5 4 3 3 3 2 1 1 2 3 2 2 3 3 2 2 2 2 2 2 2 2 2 2 3 3 3 3 3 3
7 7 6 7 7 6 5 4 5 5 4 4 4 5 4 4 4 3 3 2 2 2 2 3 3 3 2 2 2 2 2 2 2 2 2 2 2 2 3 4 4 4 3 3
8 7 6 7 5 5 5 6 5 4 5 4 4 5 4 4 4 3 3 2 2 2 2 3 3 3 3 2 2 2 2 2 2 2 2 2 2 1 3 3 5 5 4 4
8 6 6 7 6 5 5 5 5 5 5 5 4 4 4 4 3 3 3 3 3 3 2 2 2 3 3 2 2 2 3 3 2 2 2 2 2 2 1 2 2 3 4 4
6 4 5 5 6 5 4 4 4 3 3 3 3 3 3 3 3 3 3 3 3 2 2 2 2 3 3 2 2 2 3 3 3 2 2 2 2 2 2 2 1 1 2 3
5 5 6 5 4 4 3 2 2 3 3 3 3 2 2 3 3 3 3 2 2 2 2 2 2 3 2 2 2 2 2 2 2 2 2 2 2 2 2 2 1 1 1 1
5 4 3 4 4 4 3 2 3 4 4 4 3 3 3 2 2 2 2 2 2 2 3 2 3 3 2 2 1 1 2 3 2 2 2 2 1 1 1 1 1 1 2 1
3 4 4 4 4 4 4 4 4 4 4 4 4 3 2 1 2 2 2 2 2 3 3 3 3 3 2 2 1 1 1 1 1 1 1 2 2 2 1 1 2 2 2 2
4 5 4 4 4 4 4 4 3 3 4 4 3 2 1 2 2 3 3 2 2 2 3 3 3 3 2 2 1 1 1 1 1 1 1 1 1 1 1 2 2 2 2 2
3 2 3 3 3 3 3 4 4 3 3 2 2 2 2 2 2 2 2 2 2 3 3 3 4 2 2 2 2 1 1 1 1 1 1 1 1 1 1 1 2 2 2 2
2 2 2 2 2 2 2 2 2 2 2 2 1 2 2 2 2 2 2 2 3 3 3 3 2 2 2 2 2 1 1 1 1 1 1 1 1 1 1 1 2 2 2 2
2 2 2 2 2 2 2 1 1 2 2 1 2 2 2 2 2 1 1 2 3 2 3 3 2 2 2 2 1 1 1 1 1 1 1 1 1 1 1 2 2 2 2 2
2 2 2 2 2 3 3 2 1 2 2 2 2 1 1 2 2 2 2 2 3 3 2 2 1 2 2 2 0 0 1 1 1 1 1 1 1 1 2 2 2 1 1 1
2 1 2 2 2 2 3 2 1 1 1 2 2 2 2 2 1 1 2 2 2 3 2 1 2 3 2 1 1 1 0 0 1 1 1 1 1 1 1 2 1 1 1 1
1 1 1 1 1 1 2 3 2 1 1 2 1 1 1 1 1 1 1 3 3 3 2 2 2 2 2 1 1 0 0 0 0 1 1 1 1 1 1 1 1 1 1 1
1 1 1 1 1 1 2 2 2 2 2 1 2 2 1 1 1 2 1 1 2 2 2 2 3 3 2 1 0 0 0 1 1 1 1 1 1 1 1 1 1 1 1 1
1 1 1 1 1 1 1 1 1 1 1 1 2 2 1 1 1 1 1 1 1 2 2 1 2 2 1 1 1 0 0 1 1 1 0 1 1 1 1 1 1 1 1 1
1 1 1 1 1 1 1 1 1 1 1 1 1 2 1 1 1 1 1 1 1 1 1 1 1 1 1 1 1 1 1 0 0 0 0 0 1 1 1 1 1 1 1 1
Wind_Direction
257 264 248 241 243 226 215 218 227 251 255 269 280 276 280 282 285 289 284 281 274 272 274 293 306 317 322 313 313 105 63 102 209 205 184 172 171 175 168 174 195 204 199 202
283 280 269 268 259 241 235 232 242 260 270 267 274 275 272 270 270 268 262 265 270 269 259 262 259 264 269 264 267 231 233 276 249 189 181 185 184 169 160 181 211 201 205 201
275 308 330 270 239 222 227 222 213 235 252 270 279 274 263 255 256 252 254 260 258 251 241 243 243 233 230 228 227 235 262 267 253 205 200 212 203 186 192 195 194 207 221 214
255 6 250 249 229 212 228 248 232 242 257 259 262 271 270 252 240 249 255 260 255 249 246 245 248 244 226 203 207 229 257 265 255 232 221 218 209 207 215 203 201 209 216 217
178 244 275 287 256 196 217 266 237 236 253 265 277 296 284 253 233 243 249 254 248 242 242 237 234 232 213 213 211 227 246 253 247 231 226 221 221 220 216 204 211 211 200 203
178 219 251 262 260 216 169 277 258 227 244 256 282 287 278 279 264 268 268 258 246 243 241 235 242 214 204 222 217 236 245 249 244 229 222 226 226 220 209 199 209 207 212 210
203 233 261 261 258 138 194 258 288 239 243 233 231 241 270 292 292 278 273 265 250 234 233 241 239 201 212 224 235 247 252 248 243 230 230 227 218 210 198 195 194 201 213 223
179 217 253 233 146 196 235 287 294 274 259 248 258 276 285 287 284 284 285 282 261 234 258 266 239 201 224 241 247 247 247 249 250 245 237 220 204 203 193 184 186 202 214 235
198 221 251 218 224 249 268 271 270 270 273 266 270 278 286 288 285 283 271 269 266 238 266 283 269 216 229 251 246 238 237 247 253 252 227 211 199 195 191 187 193 212 214 227
252 262 263 264 265 272 267 266 270 268 270 267 269 273 278 280 283 283 279 277 274 241 257 279 285 263 241 242 230 222 234 246 246 238 223 211 210 201 195 196 200 213 218 228
256 272 290 272 255 256 263 271 280 280 268 260 262 270 270 274 276 275 279 286 267 243 252 268 279 280 272 246 209 216 228 237 246 237 219 218 224 220 214 217 207 211 218 215
239 241 235 261 268 259 259 267 269 275 282 276 258 266 275 276 277 275 277 280 276 268 261 270 273 278 281 259 217 208 224 231 233 231 225 220 222 266 269 247 242 240 238 231
247 258 251 267 278 272 265 271 273 266 265 275 277 267 267 275 279 278 275 273 269 270 270 272 276 280 282 270 232 218 225 235 235 229 224 219 214 213 253 304 271 253 246 248
254 258 267 266 272 284 281 282 283 281 277 269 273 276 272 274 275 270 270 270 270 269 273 274 280 283 284 277 253 241 234 237 234 224 221 218 215 217 218 227 263 288 273 257
260 249 251 270 282 290 292 297 303 297 297 295 282 272 261 259 264 269 278 289 288 278 279 283 288 289 297 290 266 252 240 231 223 220 220 217 213 210 216 218 232 253 284 275
276 279 271 273 273 279 289 287 284 285 289 288 285 279 272 267 272 282 284 275 263 270 273 276 280 286 300 296 281 267 251 234 219 206 203 203 199 203 208 210 226 236 243 251
252 268 270 277 275 276 274 268 265 272 281 280 275 276 278 286 293 294 293 291 279 269 268 268 276 288 292 278 262 261 256 243 234 214 202 203 204 208 209 212 224 240 257 263
232 240 242 252 260 269 277 276 269 268 270 271 277 274 258 251 266 281 294 310 316 307 291 280 281 289 289 283 264 246 232 222 209 203 205 209 203 197 203 216 224 233 257 270
256 260 262 267 262 254 264 272 272 272 276 271 262 266 268 265 268 276 288 295 292 292 294 295 296 302 287 280 269 230 214 210 212 210 198 211 217 202 206 220 231 238 246 258
278 278 277 292 297 277 277 285 287 288 283 271 271 281 286 281 272 270 277 273 269 269 280 293 301 297 289 281 279 213 202 201 203 203 198 189 196 210 212 224 232 239 249 254
289 294 303 308 308 311 299 287 278 280 287 276 259 260 268 278 273 256 262 287 293 293 291 296 304 289 284 282 278 188 192 198 202 201 197 203 207 216 219 224 235 244 250 258
275 281 288 291 305 312 313 307 285 282 296 299 293 281 276 287 294 292 273 255 275 298 307 295 292 288 295 308 60 145 166 178 201 208 206 206 207 218 225 224 230 243 249 255
280 284 289 294 292 296 314 320 305 279 278 280 274 268 268 271 265 267 292 290 282 293 303 285 289 300 315 24 79 99 128 175 214 214 210 212 217 221 225 227 229 232 235 243
304 314 314 317 336 340 327 322 326 320 308 300 292 284 277 293 308 299 279 293 307 311 313 302 311 323 5 48 72 85 175 213 230 222 207 202 209 219 225 228 230 232 234 240
330 332 335 359 336 301 298 321 345 351 351 341 332 329 324 296 279 299 314 310 320 346 353 340 346 351 16 33 33 348 286 244 227 218 208 203 210 218 225 228 227 228 234 241
339 316 297 279 271 280 294 313 323 320 329 334 334 339 347 352 342 324 330 336 339 355 2 345 344 351 2 355 336 313 292 296 314 303 234 226 222 224 226 226 232 238 238 242
7 355 352 352 346 337 330 321 306 306 312 310 311 322 338 352 355 350 353 356 357 3 358 350 349 348 342 340 338 337 333 323 307 292 274 254 240 234 233 229 233 234 236 239